Location: Krasnoyarskiy Pitomnik
(51.1333°N, 71.6167°E)
Time: 15:34:03
(UTC+00:00)

USA 229 - Pass Details

Date: 22 October 2021
Orbit: 946 x 1266 km, 63.4° (Epoch: 25 November)

Event Time Altitude Azimuth Distance (km) Brightness Sun altitude
Rises 13:31:34 0° 183° (S) 3,630 6.5 -14.0°
Reaches altitude 10° 13:34:23 10° 172° (S) 2,714 5.8 -14.4°
Maximum altitude 13:39:44 30° 114° (ESE) 1,742 4.3 -15.3°
Enters shadow 13:42:38 21° 75° (ENE) 2,122 4.7 -15.7°
